Regional Weather Roundup
Issued by NWS

Home | Current Version | Previous Version | Text Only | Print | Product List | Glossary On
Versions: 1 2 3 4 5 6 7 8 9 10 11 12 13 14 15 16 17 18 19 20 21 22 23 24 25 26 27 28 29 30 31 32 33 34 35 36 37 38 39 40 41 42 43 44 45 46 47 48 49 50
000
ASUS43 KMKX 301700
RWRWI

WISCONSIN REGIONAL WEATHER ROUNDUP
NATIONAL WEATHER SERVICE MILWAUKEE/SULLIVAN WI
1200 PM CDT SAT APR 30 2016

NOTE: "FAIR" INDICATES FEW OR NO CLOUDS BELOW 12,000 FEET WITH NO
SIGNIFICANT WEATHER AND/OR OBSTRUCTIONS TO VISIBILITY.

WIZ001-002-006>008-014>016-023>028-301800-
NORTHWEST WISCONSIN

CITY           SKY/WX    TMP DP  RH WIND       PRES   REMARKS
SUPERIOR ARPT  SUNNY     44  35  70 NE17G29   30.25F
ASHLAND        CLOUDY    50  39  66 N20       30.25F
HAYWARD        MOSUNNY   53  32  44 NE16G25   30.17F
SIREN          CLOUDY    56  30  37 NE18G25   30.13F
CUMBERLAND     PTSUNNY   52  32  46 NE18      30.12F
RICE LAKE      PTSUNNY   55  31  41 NE13G20   30.14F
CHETEK         PTSUNNY   53  34  48 NE9G18    30.12F
LADYSMITH      CLOUDY    55  32  43 NE14      30.15F
EAU CLAIRE     NOT AVBL
MENOMONIE      CLOUDY    54  34  46 NE10G21   30.09F
NEW RICHMOND   CLOUDY    53  31  42 E14G21    30.10F
OSCEOLA        CLOUDY    55  32  42 E16       30.13F
$$

WIZ003>005-009-010-017-018-301800-
NORTH CENTRAL WISCONSIN

CITY           SKY/WX    TMP DP  RH WIND       PRES   REMARKS
MANITOWISH WTR CLOUDY    51  33  48 NE10G17   30.18S
ARBOR VITAE    PTSUNNY   52  31  45 E6        30.16S
WOODRUFF       PTSUNNY   52  31  45 E6        30.16S
RHINELANDER    PTSUNNY   53  31  42 E15G21    30.16S
EAGLE RIVER    PTSUNNY   53  27  37 NE14      30.16S
LAND O LAKES   CLOUDY    52  30  43 NE13G18   30.19F
PHILLIPS       CLOUDY    52  32  46 NE10G16   30.14F
TOMAHAWK       CLOUDY    52  32  45 E8        30.15F
MEDFORD        CLOUDY    52  34  49 E14       30.11F
MERRILL        CLOUDY    54  33  44 E13       30.13F
$$

WIZ029-030-035-036-043>047-301800-
CENTRAL WISCONSIN

CITY           SKY/WX    TMP DP  RH WIND       PRES   REMARKS
WAUSAU         CLOUDY    56  31  38 E13       30.10F
MOSINEE        SUNNY     52  32  46 E14G21    30.12F
MARSHFIELD     CLOUDY    52  33  48 E15       30.09F
STEVENS POINT  CLOUDY    49  33  54 E10G17    30.12S
WAUPACA        CLOUDY    54  38  54 E12       30.13S
WAUTOMA        NOT AVBL
WISC RAPIDS    CLOUDY    52  33  48 E14       30.12S
CAMP DOUGLAS   NOT AVBL
$$

WIZ011>013-019>022-031-037>040-048>050-301800-
NORTHEAST WISCONSIN

CITY           SKY/WX    TMP DP  RH WIND       PRES   REMARKS
ANTIGO         CLOUDY    52  32  45 E14G21    30.14F
SHAWANO        CLOUDY    55  37  51 E12G18    30.15S
OCONTO         PTSUNNY   51  35  53 NE10      30.16F
STURGEON BAY   PTSUNNY   48  34  57 E10G16    30.19S
GREEN BAY      CLOUDY    51  41  68 NE13      30.15S
MANITOWOC      NOT AVBL
APPLETON       PTSUNNY   52  36  54 E12G22    30.11F
CLINTONVILLE   CLOUDY    54  34  47 E12       30.14S
OSHKOSH        PTSUNNY   52  38  58 E15       30.11S
$$

WIZ032>034-041-042-053>061-301800-
SOUTHWEST WISCONSIN

CITY           SKY/WX    TMP DP  RH WIND       PRES   REMARKS
LA CROSSE      CLOUDY    50  34  54 E12       30.04F
SPARTA         CLOUDY    49  36  62 E14       30.07S
VIROQUA        CLOUDY    46  36  69 E12G18    30.02S
BOSCOBEL       LGT RAIN  48  42  80 NE6       30.01F
PRAIRIE DU CHI LGT RAIN  47  40  76 E10       29.98F
PLATTEVILLE    CLOUDY    47  45  91 NE17G25   29.95F
$$

WIZ056-057-062-063-064-067-068-301800-
SOUTH CENTRAL WISCONSIN

CITY           SKY/WX    TMP DP  RH WIND       PRES   REMARKS
REEDSBURG      CLOUDY    49  39  70 E12G20    30.05F
BARABOO/DELLS  CLOUDY    49  38  66 E14       30.06S
LONE ROCK      NOT AVBL
MINERAL POINT  LGT RAIN  46  43  87 E17G23    29.97F
MADISON        LGT RAIN  48  42  80 E15       30.02F
MIDDLETON      CLOUDY    49  42  79 E14G20    30.04F
WATERTOWN      CLOUDY    49  40  71 E16       30.06S
MONROE         LGT RAIN  45  43  93 NE15G21   29.97F
JANESVILLE     LGT RAIN  48  45  87 E20G25    29.99F
$$

WIZ051-052-058>065-066-070>072-301800-
SOUTHEAST WISCONSIN

CITY           SKY/WX    TMP DP  RH WIND       PRES   REMARKS
MILWAUKEE      CLOUDY    45  38  76 E15       30.07F
WAUKESHA       CLOUDY    45  36  70 E12       30.08F
MILWAUKEE/TIMM PTSUNNY   46  36  66 E7        30.10S
RACINE         LGT RAIN  45  38  76 E15       30.07F
BURLINGTON     CLOUDY    46  38  72 E10G16    30.05F
KENOSHA        LGT RAIN  46  41  82 E15       30.05F
FOND DU LAC    PTSUNNY   53  38  56 E14       30.10F
SHEBOYGAN      CLOUDY    47  38  71 NE10      30.12F
WEST BEND      PTSUNNY   50  36  57 E12G17    30.10S
JUNEAU         CLOUDY    49  38  66 E18G28    30.09S
$$

LSZ147-162-301800-
LAKE SUPERIOR

STATION/POSITION TIME  TEMP    WIND        PRES    WAVE
                       AIR SEA DIR/SP/G            HT/PER
                 (UTC) (F)     (DEG/KT/KT) (MB)    (FT/S)
W MID LAKE BUOY  1550   38 37   50/ 10/ 10 1026.8R   2/ 4
DEVILS ISLAND    1600   39      60/ 17/ 19 1026.7R
PORT WING        1533   41      30/ 21/ 25 1024.7
SAXON HARBOR     1640   40      50/ 21/ 24 1023.7F
$$

LMZ867-665-643>646-301800-
LAKE MICHIGAN

STATION/POSITION TIME  TEMP    WIND        PRES    WAVE
                       AIR SEA DIR/SP/G            HT/PER
                 (UTC) (F)     (DEG/KT/KT) (MB)    (FT/S)
CHAMBERS ISLAND  1600   42      20/  9/ 12 1022.4S
N MID LAKE BUOY  1550   39 39   40/ 10/ 12 1022.6R   1/ 3
NORTHPORT PIER   1600   44      60/ 10/ 12 1022.4S
ALGOMA LAKESHORE 1600           60/ 15/ 18   N/A
KEWAUNEE LAKESHO 1600   43      30/ 11/ 14 1020.8F
SHEBOYGAN LAKESH 1600   42      50/  7/  8 1021.2S
PORT WASHINGTON  1640   45      60/  9/ 11 1020.7S
S MID LAKE BUOY  1550   42 40   80/  8/ 10 1019.4R   1/ 3
KENOSHA   LAKESH 1600   42      80/ 15/ 18 1018.3S
$$

TC  - TEMPERATURE IN CELSIUS
VSB - VISIBILITY IN STATUTE MILES
WCI - WIND CHILL INDEX
HX  - HEAT INDEX




USA.gov is the U.S. government's official web portal to all federal, state and local government web resources and services.